Torna al catalogo

CZ-6A DEB

AttivoSSO
NORAD 56250·DEBRIS·🇨🇳 China

Lanciato Nov 11, 2022 da Taiyuan Satellite Launch Center

Loading…

Prossimi Passaggi (prossime 24 ore)

TLE

AggiornatoSource: Space-Track

Epoca: Sep 14, 2026, 07:13 UTC

1 56250U 22151ABS 26257.30108627  .00001922  00000-0  52520-3 0  9999
2 56250  98.5549 287.1252 0089992  82.0102 279.1289 14.46067732183434

Traccia CZ-6A DEB in tempo reale con AllMySat

Download on the App Store